カタログに戻る

STARLINK-38096

運用中通信SSO
NORAD 100119·PAYLOAD·🇺🇸 United States

打ち上げ Jul 21, 2026 から Vandenberg Space Force Base

Loading…

次のパス (今後24時間)

TLE

最新Source: Space-Track

元期: Sep 14, 2026, 19:05 UTC

1 A0119U 26166U   26257.79560019  .00001000  00000-0  75764-5 0  9996
2 A0119  97.2841 275.8351 0000993 100.4636 259.6741 15.75182359  8701

AllMySatでSTARLINK-38096をリアルタイム追跡

Download on the App Store